sat.trackr.live / text

‹ back to catalog

STARLINK-32086

NORAD 59703 · 2024-086X

PAYLOAD ACTIVE UNKNOWN

§ Identity

Operator
Country
US
Launch date
2024-05-08
Launch site
AFETR
Launch vehicle
Mass (kg)
RCS (m²)

Purposes: comms

External: N2YO · Heavens-Above · Gunter

§ Orbital elements

Epoch: 2026-05-24T20:24:32.971968Z

Period
94.27 min
Inclination
43.0022°
Eccentricity
0.0001322
Mean motion
15.27578416 rev/d
Perigee alt
482.1 km
Apogee alt
484.0 km
Semi-major
6,861.2 km
B*
2.0623e-6
RAAN
349.4650°
Arg perigee
268.1593°
Mean anomaly
91.9107°
Rev number
11,576

§ Raw data

STARLINK-320861 59703U 24086X   26144.85038162 -.00000205  00000+0  20623-5 0  99992 59703  43.0022 349.4650 0001322 268.1593  91.9107 15.27578416115763

JSON: /api/v1/satellites/59703 · /tle

For live sub-satellite position, see the globe view (requires WebGL).

§ Visibility from observer

Set your observer location to see the next 7 days of passes ≥ 10°. The values pass through the URL so the page stays shareable.

No JS? Fill the form by hand. The geolocation button needs JavaScript.